Find Starlink 11515

NORAD ID: 62556 Int'l Des: 2025-006 Owner: SPXS Country: US Constellation: starlink operational
LEOCIRCULAR

Live-Position

3D-Globus wird geladen...

Über Starlink 11515

Beschreibung wird geladen...

Nächste Überflüge

Passes for default location (London). Set your location on the main map for personalized predictions.

Höhenverlauf

Loading altitude history...

Zweizeiliger Elementsatz

1 62556U 25006C 26124.48216292 .00164665 00000-0 12602-2 0 9997
2 62556 43.0021 163.9066 0001922 264.4842 95.5806 15.70864215 75375
Epoch: 4. Mai 2026 • Age: 5 hours

Aktueller Status

Höhe 359.1 km
Geschwindigkeit 7.70 km/s
Subsatellitenpunkt 36.69°N, 177.63°E
Startdatum 10. Jan. 2025
Alter 1.3 years
Typ internet

Technische Details

Klassifizierung Payload
Masse 960.00 kg
Trockenmasse 910.00 kg
Gesamtmasse 960.00 kg
Länge 0.30 m
Durchmesser 4.10 m
Spannweite 29.00 m
Form Box + pan
Hersteller SPXS
Bus-Typ Starlink V2MD
Phasenstatus In Orbit
Besitzer/Staat SPXS/US

Most Searched